Time,TemperatureF,DewpointF,PressureIn,WindDirection,WindDirectionDegrees,WindSpeedMPH,WindSpeedGustMPH,Humidity,HourlyPrecipIn,Conditions,Clouds,dailyrainin,SolarRadiationWatts/m^2,SoftwareType,DateUTC
2013-08-14 00:00:00,44.2,39.7,30.08,NW,316,0.0,0.0,84,0.00,,,0.03,0,Wunderground v.1.15,2013-08-14 06:00:00,
2013-08-14 00:10:00,43.2,39.3,30.08,NW,316,0.0,0.0,86,0.00,,,0.00,0,Wunderground v.1.15,2013-08-14 06:10:00,
2013-08-14 00:20:00,43.0,39.4,30.08,WNW,303,2.0,2.0,87,0.00,,,0.00,0,Wunderground v.1.15,2013-08-14 06:20:00,
2013-08-14 00:30:00,42.7,39.4,30.09,WNW,303,1.0,3.0,88,0.00,,,0.00,0,Wunderground v.1.15,2013-08-14 06:30:00,
2013-08-14 00:40:00,42.5,38.9,30.09,NNE,17,3.0,3.0,87,0.00,,,0.00,0,Wunderground v.1.15,2013-08-14 06:40:00,
2013-08-14 00:50:00,42.3,39.0,30.09,WNW,291,1.0,1.0,88,0.00,,,0.00,0,Wunderground v.1.15,2013-08-14 06:50:00,
2013-08-14 01:00:00,42.2,38.9,30.10,NNW,346,2.0,3.0,88,0.00,,,0.00,0,Wunderground v.1.15,2013-08-14 07:00:00,
2013-08-14 01:11:00,42.7,39.4,30.11,WNW,302,4.0,4.0,88,0.00,,,0.00,0,Wunderground v.1.15,2013-08-14 07:11:00,
2013-08-14 01:20:00,43.1,39.5,30.11,NW,305,4.0,4.0,87,0.00,,,0.00,0,Wunderground v.1.15,2013-08-14 07:20:00,
2013-08-14 01:30:00,44.2,40.0,30.10,NW,321,3.0,4.0,85,0.00,,,0.00,0,Wunderground v.1.15,2013-08-14 07:30:00,
2013-08-14 01:50:00,44.3,40.4,30.10,WNW,288,1.0,1.0,86,0.00,,,0.00,0,Wunderground v.1.15,2013-08-14 07:50:00,
2013-08-14 02:00:00,44.1,40.5,30.10,WNW,289,1.0,2.0,87,0.00,,,0.00,0,Wunderground v.1.15,2013-08-14 08:00:00,
2013-08-14 02:10:00,43.6,40.3,30.09,WNW,290,2.0,5.0,88,0.00,,,0.00,0,Wunderground v.1.15,2013-08-14 08:10:00,
2013-08-14 02:21:00,43.8,40.5,30.09,WNW,283,5.0,5.0,88,0.00,,,0.00,0,Wunderground v.1.15,2013-08-14 08:21:00,
2013-08-14 02:30:00,43.8,39.6,30.09,SE,125,1.0,1.0,85,0.00,,,0.00,0,Wunderground v.1.15,2013-08-14 08:30:00,
2013-08-14 02:40:00,43.3,39.7,30.09,SE,125,0.0,0.0,87,0.00,,,0.00,0,Wunderground v.1.15,2013-08-14 08:40:00,
2013-08-14 02:50:00,42.4,38.8,30.09,SE,125,0.0,0.0,87,0.00,,,0.00,0,Wunderground v.1.15,2013-08-14 08:50:00,
2013-08-14 03:00:00,42.0,38.7,30.09,NNW,341,0.0,4.0,88,0.00,,,0.00,0,Wunderground v.1.15,2013-08-14 09:00:00,
2013-08-14 03:10:00,41.6,38.6,30.09,NNW,346,1.0,1.0,89,0.00,,,0.00,0,Wunderground v.1.15,2013-08-14 09:10:00,
2013-08-14 03:20:00,41.0,38.0,30.09,NNW,346,0.0,0.0,89,0.00,,,0.00,0,Wunderground v.1.15,2013-08-14 09:20:00,
2013-08-14 03:30:00,40.4,37.7,30.09,NNW,346,0.0,0.0,90,0.00,,,0.00,0,Wunderground v.1.15,2013-08-14 09:30:00,
2013-08-14 03:40:00,40.0,37.6,30.09,NNW,346,2.0,3.0,91,0.00,,,0.00,0,Wunderground v.1.15,2013-08-14 09:40:00,
2013-08-14 04:00:00,40.3,38.2,30.08,NW,313,3.0,3.0,92,0.00,,,0.00,0,Wunderground v.1.15,2013-08-14 10:00:00,
2013-08-14 04:10:00,40.2,37.8,30.08,NW,313,1.0,3.0,91,0.00,,,0.00,0,Wunderground v.1.15,2013-08-14 10:10:00,
2013-08-14 04:20:00,39.8,37.4,30.08,NW,306,3.0,4.0,91,0.00,,,0.00,0,Wunderground v.1.15,2013-08-14 10:20:00,
2013-08-14 04:30:00,39.7,37.3,30.08,NW,306,1.0,1.0,91,0.00,,,0.00,0,Wunderground v.1.15,2013-08-14 10:30:00,
2013-08-14 04:40:00,39.5,37.1,30.08,NW,306,0.0,0.0,91,0.00,,,0.00,0,Wunderground v.1.15,2013-08-14 10:40:00,
2013-08-14 04:50:00,39.4,37.3,30.08,NW,305,0.0,3.0,92,0.00,,,0.00,0,Wunderground v.1.15,2013-08-14 10:50:00,
2013-08-14 05:00:00,39.4,37.3,30.08,NW,305,2.0,2.0,92,0.00,,,0.00,0,Wunderground v.1.15,2013-08-14 11:00:00,
2013-08-14 05:10:00,39.2,37.1,30.08,NW,305,0.0,0.0,92,0.00,,,0.00,0,Wunderground v.1.15,2013-08-14 11:10:00,
2013-08-14 05:20:00,39.3,37.2,30.08,NW,305,0.0,0.0,92,0.00,,,0.00,0,Wunderground v.1.15,2013-08-14 11:20:00,
2013-08-14 05:40:00,39.2,37.1,30.08,NW,305,2.0,2.0,92,0.00,,,0.00,0,Wunderground v.1.15,2013-08-14 11:40:00,
2013-08-14 05:50:00,39.0,36.9,30.07,NW,305,0.0,0.0,92,0.00,,,0.00,0,Wunderground v.1.15,2013-08-14 11:50:00,
2013-08-14 06:00:00,38.9,36.8,30.07,NW,305,0.0,1.0,92,0.00,,,0.00,0,Wunderground v.1.15,2013-08-14 12:00:00,
2013-08-14 06:10:00,38.7,36.6,30.07,NW,305,0.0,3.0,92,0.00,,,0.00,0,Wunderground v.1.15,2013-08-14 12:10:00,
2013-08-14 06:20:00,38.9,36.8,30.08,NW,305,1.0,1.0,92,0.00,,,0.00,7,Wunderground v.1.15,2013-08-14 12:20:00,
2013-08-14 06:40:00,40.1,38.2,30.08,NW,305,0.0,0.0,93,0.00,,,0.00,23,Wunderground v.1.15,2013-08-14 12:40:00,
2013-08-14 06:50:00,40.6,38.7,30.08,NW,305,0.0,0.0,93,0.00,,,0.00,28,Wunderground v.1.15,2013-08-14 12:50:00,
2013-08-14 07:00:00,41.3,39.4,30.08,NW,305,0.0,0.0,93,0.00,,,0.00,35,Wunderground v.1.15,2013-08-14 13:00:00,
2013-08-14 07:11:00,42.6,40.7,30.09,NW,308,0.0,0.0,93,0.00,,,0.00,51,Wunderground v.1.15,2013-08-14 13:11:00,
2013-08-14 07:20:00,43.8,41.3,30.09,NW,307,0.0,0.0,91,0.00,,,0.00,137,Wunderground v.1.15,2013-08-14 13:20:00,
2013-08-14 07:30:00,46.1,43.6,30.09,NW,308,0.0,0.0,91,0.00,,,0.00,176,Wunderground v.1.15,2013-08-14 13:30:00,
2013-08-14 07:40:00,47.7,44.0,30.09,NW,308,0.0,0.0,87,0.00,,,0.00,214,Wunderground v.1.15,2013-08-14 13:40:00,
2013-08-14 07:50:00,49.6,43.4,30.09,NW,308,0.0,0.0,79,0.00,,,0.00,262,Wunderground v.1.15,2013-08-14 13:50:00,
2013-08-14 08:00:00,51.3,43.6,30.09,NW,308,0.0,0.0,75,0.00,,,0.00,295,Wunderground v.1.15,2013-08-14 14:00:00,
2013-08-14 08:10:00,53.8,45.0,30.09,NW,307,0.0,0.0,72,0.00,,,0.00,334,Wunderground v.1.15,2013-08-14 14:10:00,
2013-08-14 08:20:00,54.7,44.7,30.08,NW,307,0.0,0.0,69,0.00,,,0.00,367,Wunderground v.1.15,2013-08-14 14:20:00,
2013-08-14 08:30:00,55.9,45.9,30.08,East,80,1.0,1.0,69,0.00,,,0.00,404,Wunderground v.1.15,2013-08-14 14:30:00,
2013-08-14 08:40:00,57.2,45.5,30.08,ENE,64,0.0,0.0,65,0.00,,,0.00,438,Wunderground v.1.15,2013-08-14 14:40:00,
2013-08-14 08:50:00,58.2,45.7,30.08,NNE,26,0.0,0.0,63,0.00,,,0.00,471,Wunderground v.1.15,2013-08-14 14:50:00,
2013-08-14 09:00:00,58.2,44.4,30.08,SE,126,0.0,3.0,60,0.00,,,0.00,504,Wunderground v.1.15,2013-08-14 15:00:00,
2013-08-14 09:10:00,58.7,45.3,30.08,NE,50,0.0,0.0,61,0.00,,,0.00,534,Wunderground v.1.15,2013-08-14 15:10:00,
2013-08-14 09:20:00,59.8,45.4,30.07,ENE,67,0.0,0.0,59,0.00,,,0.00,568,Wunderground v.1.15,2013-08-14 15:20:00,
2013-08-14 09:30:00,60.8,46.8,30.07,SE,133,0.0,4.0,60,0.00,,,0.00,594,Wunderground v.1.15,2013-08-14 15:30:00,
2013-08-14 09:40:00,62.0,46.1,30.07,East,84,0.0,0.0,56,0.00,,,0.00,631,Wunderground v.1.15,2013-08-14 15:40:00,
2013-08-14 09:50:00,63.1,46.7,30.06,NE,38,0.0,0.0,55,0.00,,,0.00,656,Wunderground v.1.15,2013-08-14 15:50:00,
2013-08-14 10:00:00,64.6,48.1,30.06,ENE,74,1.0,1.0,55,0.00,,,0.00,686,Wunderground v.1.15,2013-08-14 16:00:00,
2013-08-14 10:10:00,65.5,46.4,30.06,ENE,75,0.0,0.0,50,0.00,,,0.00,714,Wunderground v.1.15,2013-08-14 16:10:00,
2013-08-14 10:21:00,66.7,48.0,30.06,ESE,117,1.0,1.0,51,0.00,,,0.00,740,Wunderground v.1.15,2013-08-14 16:21:00,
2013-08-14 10:30:00,67.0,46.7,30.05,ENE,73,0.0,0.0,48,0.00,,,0.00,795,Wunderground v.1.15,2013-08-14 16:30:00,
2013-08-14 10:40:00,66.4,46.1,30.05,East,87,0.0,3.0,48,0.00,,,0.00,819,Wunderground v.1.15,2013-08-14 16:40:00,
2013-08-14 10:50:00,66.0,46.8,30.05,SE,139,6.0,6.0,50,0.00,,,0.00,139,Wunderground v.1.15,2013-08-14 16:50:00,
2013-08-14 11:00:00,64.6,45.5,30.05,ESE,110,7.0,7.0,50,0.00,,,0.00,846,Wunderground v.1.15,2013-08-14 17:00:00,
2013-08-14 11:11:00,66.2,48.0,30.05,ENE,64,7.0,7.0,52,0.00,,,0.00,705,Wunderground v.1.15,2013-08-14 17:11:00,
2013-08-14 11:20:00,65.0,47.4,30.05,East,84,3.0,3.0,53,0.00,,,0.00,928,Wunderground v.1.15,2013-08-14 17:20:00,
2013-08-14 11:30:00,65.7,45.5,30.05,ENE,71,3.0,3.0,48,0.00,,,0.00,183,Wunderground v.1.15,2013-08-14 17:30:00,
2013-08-14 12:00:00,67.7,51.9,30.04,ESE,115,1.0,1.0,57,0.00,,,0.00,1058,Wunderground v.1.15,2013-08-14 18:00:00,
2013-08-14 12:10:00,68.0,45.3,30.04,East,95,1.0,7.0,44,0.00,,,0.00,204,Wunderground v.1.15,2013-08-14 18:10:00,
2013-08-14 12:30:00,68.4,44.4,30.04,East,100,0.0,0.0,42,0.00,,,0.00,257,Wunderground v.1.15,2013-08-14 18:30:00,
2013-08-14 12:40:00,68.5,46.9,30.03,ESE,123,1.0,7.0,46,0.00,,,0.00,193,Wunderground v.1.15,2013-08-14 18:40:00,
2013-08-14 13:01:00,68.8,44.8,30.03,East,81,4.0,7.0,42,0.00,,,0.00,1016,Wunderground v.1.15,2013-08-14 19:01:00,
2013-08-14 13:20:00,70.4,42.9,30.01,ENE,78,6.0,6.0,37,0.00,,,0.00,1137,Wunderground v.1.15,2013-08-14 19:20:00,
2013-08-14 13:30:00,71.9,37.0,30.01,North,5,10.0,10.0,28,0.00,,,0.00,1027,Wunderground v.1.15,2013-08-14 19:30:00,
2013-08-14 13:40:00,71.6,35.8,30.01,North,350,10.0,10.0,27,0.00,,,0.00,1083,Wunderground v.1.15,2013-08-14 19:40:00,
2013-08-14 13:50:00,72.3,35.5,30.01,NW,322,10.0,10.0,26,0.00,,,0.00,1046,Wunderground v.1.15,2013-08-14 19:50:00,
2013-08-14 14:00:00,72.5,37.5,30.01,SSE,150,5.0,5.0,28,0.00,,,0.00,1120,Wunderground v.1.15,2013-08-14 20:00:00,
2013-08-14 14:10:00,74.9,40.5,30.00,North,360,5.0,5.0,29,0.00,,,0.00,1127,Wunderground v.1.15,2013-08-14 20:10:00,
2013-08-14 14:40:00,72.2,37.3,30.00,NNE,22,9.0,9.0,28,0.00,,,0.00,237,Wunderground v.1.15,2013-08-14 20:40:00,
2013-08-14 14:50:00,72.3,41.6,29.99,NNE,28,4.0,4.0,33,0.00,,,0.00,722,Wunderground v.1.15,2013-08-14 20:50:00,
2013-08-14 15:10:00,69.9,42.4,29.99,North,360,9.0,9.0,37,0.00,,,0.00,1027,Wunderground v.1.15,2013-08-14 21:10:00,
2013-08-14 15:21:00,72.7,39.5,29.98,NNW,340,6.0,11.0,30,0.00,,,0.00,163,Wunderground v.1.15,2013-08-14 21:21:00,
2013-08-14 15:30:00,69.4,33.9,29.99,NW,323,9.0,9.0,27,0.00,,,0.00,77,Wunderground v.1.15,2013-08-14 21:30:00,
2013-08-14 15:40:00,66.6,34.2,30.00,WNW,282,12.0,17.0,30,0.00,,,0.00,107,Wunderground v.1.15,2013-08-14 21:40:00,
2013-08-14 15:50:00,66.1,35.4,29.99,WSW,255,7.0,7.0,32,0.00,,,0.00,188,Wunderground v.1.15,2013-08-14 21:50:00,
2013-08-14 16:01:00,67.9,38.5,29.98,South,185,5.0,8.0,34,0.00,,,0.00,814,Wunderground v.1.15,2013-08-14 22:01:00,
2013-08-14 16:10:00,70.2,38.9,29.97,SSE,150,6.0,6.0,32,0.00,,,0.00,724,Wunderground v.1.15,2013-08-14 22:10:00,
2013-08-14 16:20:00,71.2,37.3,29.96,WSW,238,5.0,5.0,29,0.00,,,0.00,691,Wunderground v.1.15,2013-08-14 22:20:00,
2013-08-14 16:40:00,74.0,35.9,29.96,NW,313,7.0,7.0,25,0.00,,,0.00,759,Wunderground v.1.15,2013-08-14 22:40:00,
2013-08-14 17:00:00,70.2,36.4,29.98,WNW,292,13.0,13.0,29,0.00,,,0.00,726,Wunderground v.1.15,2013-08-14 23:00:00,
2013-08-14 17:20:00,71.5,37.6,29.97,North,360,13.0,17.0,29,0.00,,,0.00,610,Wunderground v.1.15,2013-08-14 23:20:00,
2013-08-14 17:30:00,71.1,38.1,29.97,WNW,299,15.0,15.0,30,0.00,,,0.00,475,Wunderground v.1.15,2013-08-14 23:30:00,
2013-08-14 17:40:00,69.7,35.1,29.97,North,355,8.0,11.0,28,0.00,,,0.00,462,Wunderground v.1.15,2013-08-14 23:40:00,
2013-08-14 17:50:00,68.8,36.1,29.97,North,360,7.0,14.0,30,0.00,,,0.00,445,Wunderground v.1.15,2013-08-14 23:50:00,
2013-08-14 18:00:00,69.0,36.3,29.97,North,355,11.0,11.0,30,0.00,,,0.00,308,Wunderground v.1.15,2013-08-15 00:00:00,
2013-08-14 18:11:00,69.1,35.5,29.97,NNW,333,6.0,7.0,29,0.00,,,0.00,185,Wunderground v.1.15,2013-08-15 00:11:00,
2013-08-14 18:20:00,67.9,34.4,29.97,North,5,7.0,7.0,29,0.00,,,0.00,165,Wunderground v.1.15,2013-08-15 00:20:00,
2013-08-14 18:30:00,66.9,33.6,29.97,NW,314,7.0,12.0,29,0.00,,,0.00,97,Wunderground v.1.15,2013-08-15 00:30:00,
2013-08-14 18:40:00,66.0,33.7,29.96,NW,322,7.0,7.0,30,0.00,,,0.00,76,Wunderground v.1.15,2013-08-15 00:40:00,
2013-08-14 18:50:00,65.4,35.5,29.96,WSW,249,4.0,6.0,33,0.00,,,0.00,63,Wunderground v.1.15,2013-08-15 00:50:00,
2013-08-14 19:00:00,63.6,40.7,29.96,WNW,287,2.0,2.0,43,0.00,,,0.00,56,Wunderground v.1.15,2013-08-15 01:00:00,
2013-08-14 19:20:00,59.6,38.2,29.97,West,259,2.0,4.0,45,0.00,,,0.00,21,Wunderground v.1.15,2013-08-15 01:20:00,
2013-08-14 19:31:00,61.7,36.5,29.98,West,264,5.0,7.0,39,0.00,,,0.00,33,Wunderground v.1.15,2013-08-15 01:31:00,
2013-08-14 19:40:00,62.9,34.1,29.97,West,269,6.0,7.0,34,0.00,,,0.00,21,Wunderground v.1.15,2013-08-15 01:40:00,
2013-08-14 19:50:00,63.9,35.0,29.98,WNW,287,9.0,9.0,34,0.00,,,0.00,5,Wunderground v.1.15,2013-08-15 01:50:00,
2013-08-14 20:00:00,63.9,34.2,29.98,WNW,286,9.0,17.0,33,0.00,,,0.00,0,Wunderground v.1.15,2013-08-15 02:00:00,
2013-08-14 20:10:00,64.0,34.3,29.98,WNW,289,10.0,10.0,33,0.00,,,0.00,0,Wunderground v.1.15,2013-08-15 02:10:00,
2013-08-14 20:20:00,63.6,33.9,29.97,NW,309,8.0,9.0,33,0.00,,,0.00,0,Wunderground v.1.15,2013-08-15 02:20:00,
2013-08-14 20:31:00,63.1,34.3,29.97,North,360,8.0,8.0,34,0.00,,,0.00,0,Wunderground v.1.15,2013-08-15 02:31:00,
2013-08-14 20:40:00,62.8,34.0,29.97,West,259,10.0,10.0,34,0.00,,,0.00,0,Wunderground v.1.15,2013-08-15 02:40:00,
2013-08-14 20:50:00,63.0,34.2,29.97,WSW,254,10.0,12.0,34,0.00,,,0.00,0,Wunderground v.1.15,2013-08-15 02:50:00,
2013-08-14 21:00:00,62.7,33.9,29.97,West,275,10.0,13.0,34,0.00,,,0.00,0,Wunderground v.1.15,2013-08-15 03:00:00,
2013-08-14 21:10:00,62.6,34.5,29.97,West,259,11.0,11.0,35,0.00,,,0.00,0,Wunderground v.1.15,2013-08-15 03:10:00,
2013-08-14 21:20:00,62.2,34.2,29.97,West,263,12.0,16.0,35,0.00,,,0.00,0,Wunderground v.1.15,2013-08-15 03:20:00,
2013-08-14 21:30:00,62.0,34.0,29.97,WSW,251,12.0,12.0,35,0.00,,,0.00,0,Wunderground v.1.15,2013-08-15 03:30:00,
2013-08-14 21:40:00,61.3,34.1,29.97,WSW,257,13.0,14.0,36,0.00,,,0.00,0,Wunderground v.1.15,2013-08-15 03:40:00,
2013-08-14 21:50:00,60.8,33.7,29.97,West,281,14.0,14.0,36,0.00,,,0.00,0,Wunderground v.1.15,2013-08-15 03:50:00,
2013-08-14 22:00:00,61.1,33.9,29.96,West,265,15.0,17.0,36,0.00,,,0.00,0,Wunderground v.1.15,2013-08-15 04:00:00,
2013-08-14 22:10:00,61.2,34.0,29.95,WSW,254,16.0,16.0,36,0.00,,,0.00,0,Wunderground v.1.15,2013-08-15 04:10:00,
2013-08-14 22:20:00,61.0,34.5,29.95,West,263,14.0,16.0,37,0.00,,,0.00,0,Wunderground v.1.15,2013-08-15 04:20:00,
2013-08-14 22:30:00,60.5,34.1,29.96,West,279,13.0,16.0,37,0.00,,,0.00,0,Wunderground v.1.15,2013-08-15 04:30:00,
2013-08-14 22:40:00,60.1,33.7,29.96,WSW,257,13.0,14.0,37,0.00,,,0.00,0,Wunderground v.1.15,2013-08-15 04:40:00,
2013-08-14 22:50:00,59.4,33.8,29.96,WSW,246,13.0,13.0,38,0.00,,,0.00,0,Wunderground v.1.15,2013-08-15 04:50:00,
2013-08-14 23:00:00,59.6,33.3,29.96,WSW,249,10.0,11.0,37,0.00,,,0.00,0,Wunderground v.1.15,2013-08-15 05:00:00,
2013-08-14 23:10:00,59.9,33.5,29.96,West,265,10.0,13.0,37,0.00,,,0.00,0,Wunderground v.1.15,2013-08-15 05:10:00,
2013-08-14 23:20:00,59.6,33.9,29.96,WNW,290,10.0,10.0,38,0.00,,,0.00,0,Wunderground v.1.15,2013-08-15 05:20:00,
2013-08-14 23:30:00,59.0,33.4,29.95,West,277,12.0,12.0,38,0.00,,,0.00,0,Wunderground v.1.15,2013-08-15 05:30:00,
2013-08-14 23:40:00,59.0,33.4,29.95,WNW,286,11.0,11.0,38,0.00,,,0.00,0,Wunderground v.1.15,2013-08-15 05:40:00,
2013-08-14 23:50:00,59.0,33.4,29.95,WSW,244,9.0,9.0,38,0.00,,,0.00,0,Wunderground v.1.15,2013-08-15 05:50:00,